"Pseudo-MPEC" for A115K6D

Created 2024 May 21 18:22:02 UT using Find_Orb

Click here for an explanation of pseudo-MPECs

 
 Astrometry: 
     A115K6D* C2024 04 03uY?RYTN]MCtG%8@.=l`#KKFi;O.\2)\Eh%Vb*9\+N%'F,s`/D1/3W68
     A115K6D  C2024 04 03_uq%xp'Au877vQM'IV,Pl#VH'e5b$1$OjWFKxu=i39@:tDp[NLMRW68
     A115K6D  C2024 04 03h]TJ#i2'T6WxmW$ERA5?5/Z/-*j\Wrhy/BI2e[:@LKrs\vs4..SqW68
     A115K6D  C2024 04 03h%raa)3O)BKRU6hI0nN)g0%`xwH,*@NGE!b`*ui3=:@LP.u;IDCYW68
     A115K6D  C2024 04 06#*X!,_Lm`qnHWxCFfa:,3Enc`p2*mFawX^v0ib\719jT:Vo.]S09W68
     A115K6D  C2024 04 06Z2wM29%jUcgWM0t/_#lmq=%Y(LfJiycHCred*9O$Q=%w0vyMq'5SW68
     A115K6D  C2024 04 06'aoHe8!NaD!/+?^/BiL!f6RedT6kCiM*^OJvPR7NS]^7uGYds5*dW68
     A115K6D  C2024 04 06goNu_sNfOLc%%.Xrk=0AdC_8XjVE9*tyW8'Xon-A1geuY^@Pn;n7W68
     A115K6D  C2024 04 06!`pko^j7X\?jQ3wMxMcm`G4j;O9-*yWAstrometryOp4JpK(-Dr^W68
     A115K6D  C2024 04 061Je/B9s6S@$D6S]w86Tg`ZU1+[ml%f*7jp2csn:^4Q[LBim(##9.W68
     A115K6D 0C2024 04 078-=M_.qUc]\`4*fOBTZ#FN+J+x2C_g:fL#]'fAy[3-!OVQ-6S-8WX07
     A115K6D 0C2024 04 07IkjlP1-=]0PuqR0^92UCh,*X_7wRoFC9ms$jadkYn@PQ4:ci7+uAX07
     A115K6D KC2024 04 08=52:A';dt.7xb(9Mredacted;rNmNx7B;ZY0Tyg2@HM^C5uuQWiWI47
     A115K6D KC2024 04 08*;_R4P/Vli6lSDdR1wLZJ0W:`,k=u#7bTUv*-Paww;AaGS^tgc^DI47
     A115K6D KC2024 04 09#DPHbLKd=4rLdVjK-+H*FjEHw*BdGbJK8Lgx+5f#a*Y+V@7X$7J_M21
     A115K6D KC2024 04 09y.[=Ub%Yg_.6]mL#pg.)sJ0v(!yRaR:BpI^u\%mBg^YZ0]PQE4JcM21
     A115K6D 3C2024 04 09^49f6lsQy3sI72Dskl;YPu9:2DkWXptp^g\t4/K3wy\4eZaVW50,W86
     A115K6D 3C2024 04 09)$MJO_@#U$jkSX!XkR1'@v'-v8v-D%1,[kkUnFZ98gqmE=yWx?-:W86
     A115K6D 3C2024 04 09:797x7p/T#EyHnI4a;!X.!ua2t?hZ4Ys%WeOA?,@Utf$/M?d`'?[W86
     A115K6D 3C2024 04 09hQ/HKx(_1iAmd`*X/$y3g,,f3KUW1#(c+Aua_(,\B`fUoDT(f4hrW86
     A115K6D KC2024 04 10U!wW0TB3\,?W[py/#5+cU`Yyn;?)^k89ioJw7]4wkX]b1F?FQ\!8X03
     A115K6D KC2024 04 10oU`etCI@[b/P2,Bp@?LfR/(cUGd-)eyy@_do]g5OxI^k2Yd8EHMWX03
     A115K6D KC2024 04 10Nj1/=0*WNSn;h2E@[a$M7ke\-gcgEk1=#A5g%FpX:eL0@bKxBx6gX03
     A115K6D 0B2024 04 11dLO+j*5(H8#]Z()P`wo:#Z?Q2b*On)$Ssu^.W`!Zw[ZeWZpZ:*FPM49
     A115K6D 0B2024 04 11?kDJQuy5]VO^jLs,,8bcsXD3bxYX:/Q_-Sc9(bNfrclick$$b*xHM49
     A115K6D 0B2024 04 11760chxQ*v0cjtnP[H9tPV#pN[ukeM9cJW'l/XQ`B:PpbR0t;P)1XM49
     A115K6D 0B2024 04 12,I^3c:QgqXY'60g2$q)AR5QL;FVy24qr8U,!p]BA;UH+@i=xa?95M49
     A115K6D 0B2024 04 12K?Qqu*)c!!W.VMExn`TqEt:brUclHR=g)4griN'hereF68M[6uuDM49
     A115K6D 0B2024 04 12F@ra\Ey7eRT,5BI#n)FBdF2sform9HB7o0VyULRlk^xtBGQ7Pw3:M49
     A115K6D ZC2024 04 21CF=pm06!gR1w+fJ^2;v2mpU:!FDRY9O%0ystrcu_;-]!Ma9:V5LJQ62
     A115K6D ZC2024 04 21`[a'=na0w@@wmnoVi.LPkM$,f=!DA;Z9WaVK@Hw`EjTnGx#sNHF,Q62
     A115K6D ZC2024 04 21/f$LAIG])`:Dq?!7AxRAh`5i^8b3;bsJNxPJ!w-*]!(.@]Fa[R($Q62
     A115K6D KC2024 04 258GQ00d%L7OU5%%6V2tn3#S`nvTwTmo!D%eb_8y4minr%J*qWu$qwI47
     A115K6D KC2024 04 25rmRo!y#wxh9]lqM[?E;j)obL7Xw5QkAFt?IK=8r0KFFkE;5O0Q)6I47
     A115K6D 0B2024 04 26i3XmXym%MfNx)@p)mZ/9Z8u5A+explanationf%uUA/34gf[l9HuM49
     A115K6D 0B2024 04 26k+o;ibvxUVxnR357Sn3c5vP#==_d0a_VlTq5qm3LJe@Vx0m,$Zo:M49
     A115K6D 0B2024 04 26VEqNV8Mqw]+TSgOLRI\+3Ok8d:,t_#HV4`]_7@#wNWSPx\V*,8isM49
     A115K6D KC2024 05 07B41,NqZhO)D=C'[!2O7eZiH6s.)='KQm1kHmtl0MgS(meW*PksR(I47
     A115K6D KC2024 05 07F`e=B6o5GOS8w!gCe_pR8xEW/)a!V:]WTHtv8Ce9LsQItrF_WlInI47
     A115K6D 1C2024 05 077Xuh3+\JjLkgd4,#;%.dy'198'+bPvh.K0u1lEM]qr$5-d8HjfC[Q62
     A115K6D 1C2024 05 07Q6t3A6cr$KCiF.5E\LT*+;oC=_w^\Yis-:CefG60j6[T,Qc7\X,YQ62
     A115K6D KC2024 05 10PEW4'j#wo@E[A6E2dlbrxm55PnucD@@2Hdiaoq'o-I+R51p'Mi%AI47
     A115K6D KC2024 05 10$oKLj4pe/\gsLi[u;jHeO;q[B:acr0hETWo?@,,9XPNSEExm0MGeI47
     A115K6D 0B2024 05 11hrF1faN_Kq^N-yn9`aK6j%[5#(y*)dMe8Bf[R7?X?'Wgt=OF-sKBM49
     A115K6D 0B2024 05 11.(Ja2.L_0kw,qh#/-5OhGcE/LZHMhN[nhE9?Qd7?h!'#PoJFXiFgM49

Station data:
(I47) Pierre Auger Observatory, Malargüe  (S35.495440 W69.449700)  Argentina.
    Observer M. Mašek. 0.3-m f/6.8 reflector + CCD.
(M21) Schiaparelli Southern Observatory, Hakos  (S23.236549 E16.361440)
   Namibia.  Observers A. Aletti, F. Bellini, L. Buzzi, G. Galli. Measurer L.
   Buzzi. 0.36-m f/8.4 reflector + CCD.
(M49) IAS Remote Observatory, Hakos  (S23.236549 E16.361720)  Namibia.
   Observers D. Husar, M. Junius. Measurer D. Husar. 0.25-m f/4.6 reflector +
   CCD.
(Q62) iTelescope Observatory, Siding Spring  (S31.273286 E149.064420)
   Australia/NSW.  Observer H. Sato. 0.51-m f/6.8 astrograph + CCD + f/4.5
   focal reducer0.43-m f/6.8 astrograph + CCD + focal reducer0.43-m f/6.8
   astrograph + CCD0.10-m f/5 astrograph + CCD0.127-m f/5.6 refractor +
   CCD0.50-m f/6.8 reflector + CCD0.30-m f/9 reflector + CCD.
(W68) ATLAS Chile, Rio Hurtado  (S30.471010 W70.764980)  Chile.  Observers L.
   Denneau, R. Siverd, J. Tonry, H. Weiland. Measurers L. Denneau, N.
   Erasmus, A. Fitzsimmons, A. Lawrence, J. Robinson, R. Siverd, J. Tonry, H.
   Weiland. 0.5-m reflector + CCD.
(W86) Cerro Tololo-LCO B  (S30.167325 W70.804670)  Chile.  Observer J. D.
   Armstrong. 1.0-m f/8 Ritchey-Chrétien + CCD.
(X03) Observatoire SADR, Poroto  (S30.533914 W70.796390)  Chile.  Observers
   J. L. Virlichie, P. Traverse. 0.35-m f/4.7 Newtonian reflector + CCD.
(X07) iTelescope Deep Sky Chile, Rio Hurtado  (S30.526389 W70.853610)  Chile.
    Observer H. Sato. 0.51-m f/6.8 astrograph + CCD.

Orbital elements:  A115K6D
   Perihelion 2025 Feb 10.20953 +/- 0.777 TT =  5:01:43 (JD 2460716.70953)
Epoch 2024 May 11.0 TT = JDT 2460441.5   Sa: 0.1089              AutoNEOCP
q   6.02982164 +/- 0.00223          (J2000 ecliptic)
H   10.70 G 0.15                    Peri.  289.62330 +/- 0.08
                                    Node   191.89728 +/- 0.016
e   1.0046526 +/- 0.00256           Incl.  131.51339 +/- 0.0019
From 45 observations 2024 Apr. 3-May 11; mean residual 0".43
Residuals in arcseconds: 
240403 W68  .39-  .62+    240409 M21  .21-  .20-    240421 Q62  .01-  .48+    
240403 W68  .64+  .85+    240409 W86  .05+  .05-    240421 Q62  .02-  .30-    
240403 W68  .41+  .36-    240409 W86  .05+  .09+    240425 I47  .31-  .47-    
240403 W68  .45+  .57-    240409 W86  .06+  .14+    240425 I47  .43+  .97-    
240406 W68  .52-  .26+    240409 W86  .13+  .08+    240426 M49  .22+  .40+    
240406 W68  .59+  .53+    240410 X03  .22-  .40+    240426 M49  .46+  .41+    
240406 W68  .03+  .40-    240410 X03  .24+  .34+    240426 M49  .16+  .04-    
240406 W68  .29-  .28+    240410 X03  .66-  .64-    240507 I47  .60-  .19+    
240406 W68  .39-  .26-    240411 M49  .24-  .22+    240507 I47  .11-  .49-    
240406 W68  .08+  1.1-    240411 M49  .06-  .02+    240507 Q62  .23-  .16-    
240407 X07  .28-  .06+    240411 M49  .05+  .05-    240507 Q62  .10-  .41-    
240407 X07  .23-  .13+    240412 M49  .08-  .32+    240510 I47  1.1-  .68+    
240408 I47  .46+  .20-    240412 M49  .07-  .22+    240510 I47  .05+  .70-    
240408 I47  .13-  .82-    240412 M49  .11-  .04+    240511 M49  .87+  .36+    
240409 M21  .05-  .02+    240421 Q62  .40+  1.2+    240511 M49  .62+  .33+    

Ephemerides (geocentric):
Date (UTC) HH   RA             Dec           delta  r     elong  mag " sig PA
---- --------  ------------   ------------  ------ ------ -----  --- --------
2024 05 21 18  22 09 41.587   -69 27 19.29  5.9257 6.3073 107.7 19.2 .520 104
2024 05 21 19  22 09 40.024   -69 27 50.61  5.9252 6.3072 107.7 19.2 .522 104
2024 05 21 20  22 09 38.456   -69 28 21.95  5.9247 6.3071 107.7 19.2 .524 104
2024 05 21 21  22 09 36.883   -69 28 53.29  5.9241 6.3070 107.8 19.2 .526 104
2024 05 21 22  22 09 35.306   -69 29 24.64  5.9236 6.3069 107.8 19.2 .527 104
2024 05 21 23  22 09 33.724   -69 29 55.99  5.9231 6.3068 107.8 19.2 .529 104
2024 05 22 00  22 09 32.137   -69 30 27.36  5.9226 6.3067 107.8 19.2 .531 104
2024 05 22 01  22 09 30.546   -69 30 58.73  5.9221 6.3067 107.9 19.2 .533 104
2024 05 22 02  22 09 28.950   -69 31 30.11  5.9216 6.3066 107.9 19.2 .535 104
2024 05 22 03  22 09 27.350   -69 32 01.49  5.9211 6.3065 107.9 19.2 .537 104
2024 05 22 04  22 09 25.745   -69 32 32.89  5.9206 6.3064 107.9 19.2 .539 104
2024 05 22 05  22 09 24.135   -69 33 04.29  5.9201 6.3063 108.0 19.2 .541 104
2024 05 22 06  22 09 22.520   -69 33 35.70  5.9196 6.3062 108.0 19.2 .543 104
2024 05 22 07  22 09 20.901   -69 34 07.11  5.9191 6.3062 108.0 19.2 .545 104
2024 05 22 08  22 09 19.277   -69 34 38.54  5.9186 6.3061 108.0 19.2 .547 104
2024 05 22 09  22 09 17.649   -69 35 09.97  5.9181 6.3060 108.1 19.2 .549 104
2024 05 22 10  22 09 16.015   -69 35 41.40  5.9176 6.3059 108.1 19.2 .551 105
2024 05 22 11  22 09 14.377   -69 36 12.85  5.9171 6.3058 108.1 19.2 .553 105
2024 05 22 12  22 09 12.735   -69 36 44.30  5.9166 6.3057 108.1 19.2 .555 105
2024 05 22 13  22 09 11.087   -69 37 15.76  5.9161 6.3056 108.2 19.2 .556 105
2024 05 22 14  22 09 09.435   -69 37 47.23  5.9156 6.3056 108.2 19.2 .558 105
2024 05 22 15  22 09 07.778   -69 38 18.70  5.9151 6.3055 108.2 19.2 .560 105
2024 05 22 16  22 09 06.116   -69 38 50.18  5.9146 6.3054 108.3 19.2 .562 105
2024 05 22 17  22 09 04.450   -69 39 21.67  5.9141 6.3053 108.3 19.2 .564 105
2024 05 22 18  22 09 02.779   -69 39 53.16  5.9136 6.3052 108.3 19.2 .566 105
2024 05 22 19  22 09 01.103   -69 40 24.67  5.9131 6.3051 108.3 19.2 .568 105
2024 05 22 20  22 08 59.422   -69 40 56.17  5.9126 6.3051 108.4 19.2 .570 105
2024 05 22 21  22 08 57.736   -69 41 27.69  5.9121 6.3050 108.4 19.2 .572 105
2024 05 22 22  22 08 56.046   -69 41 59.21  5.9116 6.3049 108.4 19.2 .574 105
2024 05 22 23  22 08 54.351   -69 42 30.74  5.9111 6.3048 108.4 19.2 .576 105
2024 05 23 00  22 08 52.651   -69 43 02.28  5.9106 6.3047 108.5 19.2 .578 105
2024 05 23 01  22 08 50.946   -69 43 33.83  5.9101 6.3046 108.5 19.2 .580 105
2024 05 23 02  22 08 49.237   -69 44 05.38  5.9096 6.3045 108.5 19.2 .582 105
2024 05 23 03  22 08 47.522   -69 44 36.93  5.9091 6.3045 108.5 19.2 .584 105
2024 05 23 04  22 08 45.803   -69 45 08.50  5.9087 6.3044 108.6 19.2 .586 105
2024 05 23 05  22 08 44.079   -69 45 40.07  5.9082 6.3043 108.6 19.2 .588 105
2024 05 23 06  22 08 42.350   -69 46 11.65  5.9077 6.3042 108.6 19.2 .590 105
2024 05 23 07  22 08 40.616   -69 46 43.24  5.9072 6.3041 108.6 19.2 .592 105
2024 05 23 08  22 08 38.878   -69 47 14.83  5.9067 6.3040 108.7 19.2 .594 105
2024 05 23 09  22 08 37.134   -69 47 46.43  5.9062 6.3040 108.7 19.2 .596 105
2024 05 23 10  22 08 35.386   -69 48 18.03  5.9057 6.3039 108.7 19.2 .598 105
2024 05 23 11  22 08 33.633   -69 48 49.65  5.9052 6.3038 108.7 19.2 .600 105
2024 05 23 12  22 08 31.874   -69 49 21.27  5.9047 6.3037 108.8 19.2 .602 105
2024 05 23 13  22 08 30.111   -69 49 52.89  5.9042 6.3036 108.8 19.2 .604 105
2024 05 23 14  22 08 28.343   -69 50 24.52  5.9037 6.3035 108.8 19.2 .606 106
2024 05 23 15  22 08 26.571   -69 50 56.16  5.9032 6.3035 108.8 19.2 .608 106
2024 05 23 16  22 08 24.793   -69 51 27.81  5.9027 6.3034 108.9 19.2 .610 106
2024 05 23 17  22 08 23.010   -69 51 59.46  5.9022 6.3033 108.9 19.2 .612 106